TimeCST,TemperatureF,Dew PointF,Humidity,Sea Level PressureIn,VisibilityMPH,Wind Direction,Wind SpeedMPH,Gust SpeedMPH,PrecipitationIn,Events,Conditions,WindDirDegrees,DateUTC
12:15 AM,10.4,-5.8,48,30.19,10.0,NW,10.4,-,N/A,,Overcast,320,2013-01-17 06:15:00
12:35 AM,10.4,-5.8,48,30.19,10.0,NW,10.4,-,N/A,,Overcast,320,2013-01-17 06:35:00
12:55 AM,8.6,-4.0,57,30.20,10.0,NW,6.9,-,N/A,,Overcast,320,2013-01-17 06:55:00
1:15 AM,8.6,-5.8,52,30.20,10.0,NNW,9.2,-,N/A,,Overcast,330,2013-01-17 07:15:00
1:35 AM,8.6,-5.8,52,30.21,10.0,NNW,12.7,-,N/A,,Overcast,330,2013-01-17 07:35:00
1:55 AM,8.6,-5.8,52,30.21,10.0,NNW,10.4,-,N/A,,Overcast,330,2013-01-17 07:55:00
2:15 AM,8.6,-5.8,52,30.21,10.0,NNW,6.9,-,N/A,,Overcast,330,2013-01-17 08:15:00
2:35 AM,6.8,-4.0,61,30.23,10.0,NW,5.8,-,N/A,,Overcast,310,2013-01-17 08:35:00
3:35 AM,5.0,-5.8,61,30.23,10.0,North,4.6,-,N/A,,Mostly Cloudy,360,2013-01-17 09:35:00
3:55 AM,5.0,-5.8,61,30.23,10.0,NNW,5.8,-,N/A,,Overcast,330,2013-01-17 09:55:00
4:15 AM,5.0,-4.0,66,30.23,10.0,NNW,5.8,-,N/A,,Overcast,330,2013-01-17 10:15:00
4:35 AM,5.0,-4.0,66,30.23,10.0,WNW,4.6,-,N/A,,Overcast,300,2013-01-17 10:35:00
4:55 AM,6.8,-2.2,67,30.23,10.0,WNW,8.1,-,N/A,,Overcast,290,2013-01-17 10:55:00
5:15 AM,6.8,-2.2,67,30.24,10.0,WNW,8.1,-,N/A,,Overcast,290,2013-01-17 11:15:00
5:35 AM,5.0,-2.2,72,30.25,10.0,WNW,6.9,-,N/A,,Overcast,290,2013-01-17 11:35:00
5:55 AM,5.0,-4.0,66,30.26,10.0,WNW,5.8,-,N/A,,Overcast,290,2013-01-17 11:55:00
6:15 AM,5.0,-4.0,66,30.27,10.0,WNW,6.9,-,N/A,,Overcast,290,2013-01-17 12:15:00
6:35 AM,5.0,-4.0,66,30.28,10.0,WNW,8.1,-,N/A,,Overcast,290,2013-01-17 12:35:00
6:55 AM,5.0,-5.8,61,30.27,10.0,NW,5.8,-,N/A,,Overcast,310,2013-01-17 12:55:00
7:15 AM,6.8,-5.8,56,30.27,10.0,NW,4.6,-,N/A,,Overcast,310,2013-01-17 13:15:00
7:35 AM,6.8,-5.8,56,30.27,10.0,NW,5.8,-,N/A,,Overcast,320,2013-01-17 13:35:00
7:55 AM,6.8,-4.0,61,30.27,10.0,WNW,3.5,-,N/A,,Overcast,290,2013-01-17 13:55:00
8:15 AM,6.8,-4.0,61,30.28,10.0,West,4.6,-,N/A,,Overcast,270,2013-01-17 14:15:00
8:35 AM,6.8,-4.0,61,30.28,10.0,WSW,5.8,-,N/A,,Overcast,250,2013-01-17 14:35:00
8:55 AM,8.6,-4.0,57,30.29,10.0,West,8.1,-,N/A,,Overcast,260,2013-01-17 14:55:00
9:15 AM,8.6,-4.0,57,30.29,10.0,WSW,6.9,-,N/A,,Overcast,250,2013-01-17 15:15:00
9:35 AM,8.6,-4.0,57,30.31,10.0,West,10.4,-,N/A,,Overcast,260,2013-01-17 15:35:00
9:55 AM,8.6,-0.4,67,30.31,7.0,West,9.2,-,N/A,Snow,Light Snow,270,2013-01-17 15:55:00
10:15 AM,8.6,1.4,73,30.33,3.0,WNW,10.4,-,N/A,Snow,Light Snow,290,2013-01-17 16:15:00
10:35 AM,8.6,1.4,73,30.33,5.0,WNW,6.9,-,N/A,Snow,Light Snow,290,2013-01-17 16:35:00
10:55 AM,10.4,1.4,67,30.32,7.0,West,6.9,-,N/A,,Overcast,260,2013-01-17 16:55:00
11:15 AM,10.4,1.4,67,30.31,7.0,WNW,9.2,-,N/A,Snow,Light Snow,290,2013-01-17 17:15:00
11:35 AM,10.4,3.2,73,30.30,3.0,West,6.9,-,N/A,Snow,Light Snow,270,2013-01-17 17:35:00
11:55 AM,10.4,3.2,73,30.30,3.0,West,6.9,-,N/A,Snow,Light Snow,280,2013-01-17 17:55:00
12:15 PM,10.4,3.2,73,30.30,4.0,WNW,9.2,-,N/A,Snow,Light Snow,290,2013-01-17 18:15:00
12:35 PM,12.2,3.2,67,30.30,3.0,West,8.1,-,N/A,Snow,Light Snow,270,2013-01-17 18:35:00
12:55 PM,12.2,3.2,67,30.29,7.0,West,10.4,-,N/A,Snow,Light Snow,280,2013-01-17 18:55:00
1:15 PM,12.2,3.2,67,30.29,10.0,West,11.5,-,N/A,,Overcast,280,2013-01-17 19:15:00
1:35 PM,12.2,3.2,67,30.28,10.0,West,9.2,-,N/A,,Scattered Clouds,280,2013-01-17 19:35:00
1:55 PM,12.2,3.2,67,30.28,10.0,WNW,11.5,-,N/A,,Scattered Clouds,290,2013-01-17 19:55:00
2:15 PM,14.0,3.2,62,30.27,10.0,WNW,9.2,-,N/A,,Scattered Clouds,300,2013-01-17 20:15:00
2:35 PM,12.2,3.2,67,30.28,10.0,West,12.7,-,N/A,,Scattered Clouds,280,2013-01-17 20:35:00
2:55 PM,14.0,3.2,62,30.29,10.0,West,10.4,-,N/A,,Scattered Clouds,280,2013-01-17 20:55:00
3:15 PM,14.0,3.2,62,30.29,10.0,NW,8.1,-,N/A,,Mostly Cloudy,310,2013-01-17 21:15:00
3:35 PM,14.0,3.2,62,30.29,10.0,WNW,10.4,-,N/A,,Mostly Cloudy,300,2013-01-17 21:35:00
3:55 PM,12.2,3.2,67,30.29,10.0,WNW,6.9,-,N/A,,Mostly Cloudy,290,2013-01-17 21:55:00
4:55 PM,10.4,1.4,67,30.31,10.0,WNW,4.6,-,N/A,,Scattered Clouds,300,2013-01-17 22:55:00
5:35 PM,8.6,-0.4,67,30.31,10.0,West,4.6,-,N/A,,Clear,280,2013-01-17 23:35:00
7:55 PM,3.2,-0.4,85,30.32,10.0,West,4.6,-,N/A,,Clear,260,2013-01-18 01:55:00
8:15 PM,3.2,-0.4,85,30.32,10.0,West,3.5,-,N/A,,Clear,260,2013-01-18 02:15:00
8:55 PM,3.2,-0.4,85,30.30,10.0,Calm,Calm,-,N/A,,Scattered Clouds,0,2013-01-18 02:55:00
9:15 PM,3.2,-0.4,85,30.30,10.0,Calm,Calm,-,N/A,,Clear,0,2013-01-18 03:15:00
9:35 PM,3.2,-0.4,85,30.29,10.0,Calm,Calm,-,N/A,,Clear,0,2013-01-18 03:35:00
9:55 PM,5.0,1.4,85,30.29,10.0,Calm,Calm,-,N/A,,Clear,0,2013-01-18 03:55:00
11:15 PM,5.0,1.4,85,30.27,10.0,Calm,Calm,-,N/A,,Scattered Clouds,0,2013-01-18 05:15:00
11:35 PM,6.8,1.4,79,30.27,10.0,Calm,Calm,-,N/A,,Mostly Cloudy,0,2013-01-18 05:35:00
11:55 PM,6.8,3.2,85,30.26,10.0,Calm,Calm,-,N/A,,Mostly Cloudy,0,2013-01-18 05:55:00